Tracking 19638 objects as of 21-Apr-2019
HD Live streaming from Space Station
objects crossing your sky now

IRS P6

Track IRS P6 now!
10-day predictions
IRS P6 is classified as:


NORAD ID: 28051
Int'l Code: 2003-046A
Perigee: 743.9 km
Apogee: 826.2 km
Inclination: 98.5 °
Period: 100.4 minutes
Semi major axis: 7156 km
RCS: 5.9386 m2 (large)
Launch date: October 17, 2003
Source: India (IND)
Launch site: SRIHARIKOTA (SRI)

Monitor agricultural, land, and water resources.
aabbcc
Your satellite tracking list
Your tracking list is empty




NASA's NSSDC Master Catalog

Two Line Element Set (TLE):
1 28051U 03046A   19110.79960445 -.00000233  00000-0 -66537-4 0  9996
2 28051  98.5203 189.2963 0057507 201.5370 158.3386 14.34151407805664
Source of the keplerian elements: AFSPC